Station Historical Data
Daily Summary for April 2, 2012 Units:  English    Metric   Both
« Previous Day
Next Day »
Daily Weekly Monthly Yearly Custom
  High: Low: Average:
Temperature: 83.0 °F 61.5 °F 72 °F
Dew Point: 68.8 °F 59.7 °F 63.7 °F
Humidity: 94% 52% 77%
Wind Speed: 11.0mph 0.0mph 2.8mph
Wind Gust: 12.0mph - -
Wind- - South
Pressure: 29.85 in 29.72 in -
Precipitation: 0.00 in    
Historical Graphs
 
 
Tabular Data for April 2, 2012
Time Temperature Dew Point Pressure Wind Wind Speed Wind Gust Humidity Rainfall Rate (Hourly) Conditions
00:00 70.3 °F 63.1 °F 29.74 in South 6.0 mph 7.0 mph 78% 0.00 in
00:01 70.4 °F 63.2 °F 29.74 in South 5.0 mph 6.0 mph 78% 0.00 in
00:02 70.3 °F 63.1 °F 29.74 in SW 2.0 mph 6.0 mph 78% 0.00 in
00:07 70.1 °F 63.3 °F 29.74 in SSW 2.0 mph 6.0 mph 79% 0.00 in
00:12 69.9 °F 63.1 °F 29.74 in SW 6.0 mph 6.0 mph 79% 0.00 in
00:17 69.6 °F 62.8 °F 29.74 in South 4.0 mph 6.0 mph 79% 0.00 in
00:22 69.5 °F 63.1 °F 29.74 in SW 3.0 mph 6.0 mph 80% 0.00 in
00:27 69.5 °F 63.1 °F 29.74 in SSW 3.0 mph 9.0 mph 80% 0.00 in
00:32 69.3 °F 62.9 °F 29.74 in South 3.0 mph 7.0 mph 80% 0.00 in
00:37 69.2 °F 62.8 °F 29.73 in SSW 3.0 mph 6.0 mph 80% 0.00 in
00:42 69.0 °F 62.9 °F 29.74 in South 3.0 mph 5.0 mph 81% 0.00 in
00:47 68.9 °F 62.8 °F 29.73 in South 4.0 mph 6.0 mph 81% 0.00 in
00:52 68.8 °F 62.7 °F 29.73 in SSE 4.0 mph 7.0 mph 81% 0.00 in
00:58 68.7 °F 62.6 °F 29.73 in SSE 3.0 mph 7.0 mph 81% 0.00 in
01:03 68.6 °F 62.5 °F 29.73 in South 3.0 mph 7.0 mph 81% 0.00 in
01:08 68.4 °F 62.7 °F 29.73 in SSW 2.0 mph 4.0 mph 82% 0.00 in
01:13 68.1 °F 62.4 °F 29.73 in SSW 2.0 mph 4.0 mph 82% 0.00 in
01:18 67.8 °F 62.5 °F 29.73 in SSW 3.0 mph 3.0 mph 83% 0.00 in
01:23 67.7 °F 62.4 °F 29.73 in SSW 3.0 mph 5.0 mph 83% 0.00 in
01:28 67.5 °F 62.5 °F 29.73 in SSW 4.0 mph 7.0 mph 84% 0.00 in
01:33 67.4 °F 62.4 °F 29.73 in SSW 2.0 mph 3.0 mph 84% 0.00 in
01:38 67.2 °F 62.2 °F 29.73 in SSW 3.0 mph 3.0 mph 84% 0.00 in
01:43 66.9 °F 62.2 °F 29.73 in SW 2.0 mph 4.0 mph 85% 0.00 in
01:48 66.9 °F 62.2 °F 29.73 in SSW 1.0 mph 5.0 mph 85% 0.00 in
01:53 66.8 °F 62.2 °F 29.73 in SSW 4.0 mph 4.0 mph 85% 0.00 in
01:58 66.8 °F 62.2 °F 29.73 in SSE 2.0 mph 3.0 mph 85% 0.00 in
02:03 66.7 °F 62.0 °F 29.73 in SSW 3.0 mph 3.0 mph 85% 0.00 in
02:08 66.7 °F 62.0 °F 29.73 in SSW 3.0 mph 5.0 mph 85% 0.00 in
02:13 66.6 °F 62.0 °F 29.73 in SSW 1.0 mph 2.0 mph 85% 0.00 in
02:18 66.3 °F 62.0 °F 29.73 in SSW 2.0 mph 3.0 mph 86% 0.00 in
02:23 66.1 °F 61.8 °F 29.73 in SW 2.0 mph 3.0 mph 86% 0.00 in
02:28 66.0 °F 62.0 °F 29.73 in South 2.0 mph 3.0 mph 87% 0.00 in
02:33 66.0 °F 62.0 °F 29.73 in SE 2.0 mph 3.0 mph 87% 0.00 in
02:38 65.9 °F 61.9 °F 29.72 in SW 2.0 mph 2.0 mph 87% 0.00 in
02:43 65.8 °F 61.8 °F 29.73 in SSW 2.0 mph 3.0 mph 87% 0.00 in
02:48 65.7 °F 61.7 °F 29.72 in WSW 1.0 mph 2.0 mph 87% 0.00 in
02:53 65.6 °F 62.0 °F 29.72 in South 1.0 mph 2.0 mph 88% 0.00 in
02:58 65.6 °F 62.0 °F 29.72 in South 1.0 mph 3.0 mph 88% 0.00 in
03:03 65.5 °F 61.9 °F 29.72 in South 1.0 mph 3.0 mph 88% 0.00 in
03:08 65.4 °F 61.8 °F 29.72 in SSE 1.0 mph 2.0 mph 88% 0.00 in
03:13 65.4 °F 61.8 °F 29.72 in SSE 2.0 mph 2.0 mph 88% 0.00 in
03:18 65.4 °F 61.8 °F 29.72 in SSE 2.0 mph 2.0 mph 88% 0.00 in
03:23 65.2 °F 61.9 °F 29.72 in SSE 2.0 mph 3.0 mph 89% 0.00 in
03:28 65.1 °F 61.8 °F 29.72 in SSW 1.0 mph 3.0 mph 89% 0.00 in
03:33 65.0 °F 61.7 °F 29.72 in SSE 1.0 mph 2.0 mph 89% 0.00 in
03:38 64.8 °F 61.5 °F 29.72 in South 1.0 mph 2.0 mph 89% 0.00 in
03:43 64.6 °F 61.6 °F 29.72 in SSE 1.0 mph 2.0 mph 90% 0.00 in
03:48 64.4 °F 61.4 °F 29.72 in SE 2.0 mph 2.0 mph 90% 0.00 in
03:53 64.4 °F 61.4 °F 29.72 in SE 2.0 mph 2.0 mph 90% 0.00 in
03:58 64.3 °F 61.3 °F 29.72 in SSE 1.0 mph 2.0 mph 90% 0.00 in
04:03 64.2 °F 61.5 °F 29.72 in Calm   1.0 mph 91% 0.00 in
04:08 64.2 °F 61.5 °F 29.72 in Calm   1.0 mph 91% 0.00 in
04:13 64.1 °F 61.4 °F 29.72 in ESE 1.0 mph 1.0 mph 91% 0.00 in
04:18 64.1 °F 61.4 °F 29.72 in ESE 1.0 mph 1.0 mph 91% 0.00 in
04:23 64.0 °F 61.3 °F 29.72 in ESE 1.0 mph 1.0 mph 91% 0.00 in
04:28 63.8 °F 61.1 °F 29.72 in ESE 1.0 mph 1.0 mph 91% 0.00 in
04:33 63.7 °F 61.0 °F 29.72 in Calm   1.0 mph 91% 0.00 in
04:39 63.4 °F 61.0 °F 29.72 in Calm   1.0 mph 92% 0.00 in
04:44 63.2 °F 60.8 °F 29.72 in Calm     92% 0.00 in
04:49 63.0 °F 60.6 °F 29.72 in ESE 1.0 mph 1.0 mph 92% 0.00 in
04:54 62.8 °F 60.8 °F 29.73 in Calm   1.0 mph 93% 0.00 in
04:59 62.8 °F 60.8 °F 29.73 in Calm   2.0 mph 93% 0.00 in
05:04 62.6 °F 60.5 °F 29.73 in Calm     93% 0.00 in
05:09 62.4 °F 60.3 °F 29.73 in Calm     93% 0.00 in
05:14 62.3 °F 60.2 °F 29.73 in Calm     93% 0.00 in
05:19 62.4 °F 60.7 °F 29.73 in ESE 1.0 mph 1.0 mph 94% 0.00 in
05:24 62.6 °F 60.8 °F 29.73 in Calm   1.0 mph 94% 0.00 in
05:29 62.5 °F 60.8 °F 29.73 in SE 1.0 mph 1.0 mph 94% 0.00 in
05:34 62.3 °F 60.2 °F 29.74 in SE 2.0 mph 2.0 mph 93% 0.00 in
05:39 62.2 °F 60.2 °F 29.74 in SE 2.0 mph 2.0 mph 93% 0.00 in
05:44 62.2 °F 60.5 °F 29.74 in SE 2.0 mph 2.0 mph 94% 0.00 in
05:49 62.4 °F 60.7 °F 29.74 in SE 2.0 mph 2.0 mph 94% 0.00 in
05:54 62.6 °F 60.8 °F 29.74 in ESE 1.0 mph 2.0 mph 94% 0.00 in
05:59 62.7 °F 60.7 °F 29.75 in ESE 1.0 mph 1.0 mph 93% 0.00 in
06:04 62.4 °F 60.3 °F 29.75 in ESE 1.0 mph 2.0 mph 93% 0.00 in
06:09 62.1 °F 60.1 °F 29.75 in SE 1.0 mph 1.0 mph 93% 0.00 in
06:14 62.0 °F 60.0 °F 29.75 in East 1.0 mph 1.0 mph 93% 0.00 in
06:19 62.0 °F 60.0 °F 29.76 in East 1.0 mph 1.0 mph 93% 0.00 in
06:24 62.0 °F 60.0 °F 29.76 in Calm   1.0 mph 93% 0.00 in
06:29 61.7 °F 59.7 °F 29.76 in East 1.0 mph 1.0 mph 93% 0.00 in
06:34 61.6 °F 59.9 °F 29.76 in Calm   1.0 mph 94% 0.00 in
06:39 61.6 °F 59.9 °F 29.76 in Calm   1.0 mph 94% 0.00 in
06:44 61.6 °F 59.9 °F 29.77 in East 1.0 mph 1.0 mph 94% 0.00 in
06:49 61.6 °F 59.9 °F 29.77 in ESE 1.0 mph 1.0 mph 94% 0.00 in
06:54 61.5 °F 59.8 °F 29.77 in SE 1.0 mph 1.0 mph 94% 0.00 in
06:59 61.5 °F 59.8 °F 29.78 in SE 1.0 mph 1.0 mph 94% 0.00 in
07:04 61.7 °F 60.0 °F 29.78 in SE 1.0 mph 1.0 mph 94% 0.00 in
07:10 62.0 °F 60.3 °F 29.78 in SSE 2.0 mph 2.0 mph 94% 0.00 in
07:15 62.3 °F 60.6 °F 29.78 in SSE 1.0 mph 2.0 mph 94% 0.00 in
07:20 62.7 °F 61.0 °F 29.78 in SW 2.0 mph 3.0 mph 94% 0.00 in
07:25 62.9 °F 61.2 °F 29.79 in SSW 1.0 mph 1.0 mph 94% 0.00 in
07:30 63.0 °F 61.2 °F 29.79 in SSW 1.0 mph 2.0 mph 94% 0.00 in
07:35 63.1 °F 61.3 °F 29.78 in Calm   2.0 mph 94% 0.00 in
07:40 63.2 °F 61.5 °F 29.79 in South 1.0 mph 3.0 mph 94% 0.00 in
07:42 63.2 °F 61.5 °F 29.79 in SSE 1.0 mph 2.0 mph 94% 0.00 in
07:47 63.2 °F 61.5 °F 29.79 in South 2.0 mph 2.0 mph 94% 0.00 in
07:52 63.2 °F 61.5 °F 29.79 in South 2.0 mph 3.0 mph 94% 0.00 in
07:57 63.2 °F 61.2 °F 29.79 in SE 2.0 mph 2.0 mph 93% 0.00 in
07:58 63.2 °F 61.5 °F 29.79 in SSE 1.0 mph 2.0 mph 94% 0.00 in
08:03 63.3 °F 61.5 °F 29.80 in SSE 3.0 mph 3.0 mph 94% 0.00 in
08:08 63.5 °F 61.8 °F 29.80 in South 2.0 mph 3.0 mph 94% 0.00 in
08:13 63.7 °F 61.6 °F 29.81 in SSE 2.0 mph 3.0 mph 93% 0.00 in
08:18 63.9 °F 61.8 °F 29.81 in SE 1.0 mph 2.0 mph 93% 0.00 in
08:23 64.1 °F 62.0 °F 29.81 in South 3.0 mph 4.0 mph 93% 0.00 in
08:28 64.4 °F 62.3 °F 29.81 in South 2.0 mph 4.0 mph 93% 0.00 in
08:33 64.8 °F 62.7 °F 29.81 in South 4.0 mph 4.0 mph 93% 0.00 in
08:38 65.3 °F 63.2 °F 29.82 in South 3.0 mph 4.0 mph 93% 0.00 in
08:43 65.6 °F 63.2 °F 29.81 in SSW 3.0 mph 7.0 mph 92% 0.00 in
08:48 66.1 °F 63.7 °F 29.82 in SW 2.0 mph 4.0 mph 92% 0.00 in
08:53 66.4 °F 64.0 °F 29.82 in South 4.0 mph 4.0 mph 92% 0.00 in
08:58 66.7 °F 64.0 °F 29.82 in South 2.0 mph 6.0 mph 91% 0.00 in
09:03 66.7 °F 64.0 °F 29.82 in SW 4.0 mph 4.0 mph 91% 0.00 in
09:08 66.8 °F 64.1 °F 29.83 in SW 3.0 mph 5.0 mph 91% 0.00 in
09:13 66.9 °F 64.2 °F 29.83 in SSW 3.0 mph 6.0 mph 91% 0.00 in
09:18 67.1 °F 64.4 °F 29.83 in SW 3.0 mph 5.0 mph 91% 0.00 in
09:23 67.3 °F 64.6 °F 29.83 in SW 3.0 mph 4.0 mph 91% 0.00 in
09:28 67.7 °F 64.7 °F 29.83 in SSW 4.0 mph 6.0 mph 90% 0.00 in
09:33 68.0 °F 65.0 °F 29.83 in SSW 3.0 mph 7.0 mph 90% 0.00 in
09:38 68.5 °F 65.1 °F 29.83 in SW 4.0 mph 6.0 mph 89% 0.00 in
09:43 68.7 °F 65.3 °F 29.83 in WSW 6.0 mph 8.0 mph 89% 0.00 in
09:48 68.7 °F 65.3 °F 29.84 in SW 8.0 mph 8.0 mph 89% 0.00 in
09:53 68.8 °F 65.1 °F 29.84 in SW 5.0 mph 8.0 mph 88% 0.00 in
09:59 69.1 °F 65.7 °F 29.84 in WSW 4.0 mph 6.0 mph 89% 0.00 in
10:04 69.5 °F 65.8 °F 29.84 in SSW 4.0 mph 8.0 mph 88% 0.00 in
10:09 69.6 °F 65.6 °F 29.84 in WSW 3.0 mph 8.0 mph 87% 0.00 in
10:14 70.0 °F 66.0 °F 29.84 in WSW 3.0 mph 5.0 mph 87% 0.00 in
10:19 70.1 °F 66.1 °F 29.84 in WSW 2.0 mph 5.0 mph 87% 0.00 in
10:24 70.3 °F 66.6 °F 29.84 in WSW 4.0 mph 6.0 mph 88% 0.00 in
10:29 70.3 °F 65.9 °F 29.84 in SSW 4.0 mph 10.0 mph 86% 0.00 in
10:34 70.5 °F 66.1 °F 29.84 in SW 2.0 mph 7.0 mph 86% 0.00 in
10:39 71.2 °F 66.8 °F 29.84 in WSW 4.0 mph 4.0 mph 86% 0.00 in
10:44 71.4 °F 67.0 °F 29.84 in SW 5.0 mph 6.0 mph 86% 0.00 in
10:49 71.7 °F 66.9 °F 29.84 in West 7.0 mph 8.0 mph 85% 0.00 in
10:54 71.8 °F 66.7 °F 29.84 in WSW 6.0 mph 9.0 mph 84% 0.00 in
10:59 72.4 °F 68.0 °F 29.84 in WSW 2.0 mph 6.0 mph 86% 0.00 in
11:04 73.1 °F 68.0 °F 29.84 in SW 7.0 mph 7.0 mph 84% 0.00 in
11:09 73.2 °F 67.4 °F 29.84 in WSW 8.0 mph 8.0 mph 82% 0.00 in
11:14 73.1 °F 66.9 °F 29.84 in WSW 4.0 mph 7.0 mph 81% 0.00 in
11:19 73.5 °F 67.7 °F 29.84 in West 3.0 mph 7.0 mph 82% 0.00 in
11:24 73.9 °F 67.3 °F 29.84 in SW 11.0 mph 11.0 mph 80% 0.00 in
11:29 73.8 °F 67.2 °F 29.84 in West 6.0 mph 12.0 mph 80% 0.00 in
11:35 73.8 °F 67.2 °F 29.84 in SW 8.0 mph 8.0 mph 80% 0.00 in
11:40 74.1 °F 67.5 °F 29.84 in SW 8.0 mph 8.0 mph 80% 0.00 in
11:45 74.3 °F 67.4 °F 29.84 in SW 3.0 mph 11.0 mph 79% 0.00 in
11:50 75.0 °F 68.1 °F 29.84 in WNW 3.0 mph 10.0 mph 79% 0.00 in
11:55 75.0 °F 67.3 °F 29.84 in SW 5.0 mph 9.0 mph 77% 0.00 in
12:00 75.4 °F 68.1 °F 29.84 in WSW 6.0 mph 7.0 mph 78% 0.00 in
12:06 75.7 °F 68.0 °F 29.84 in SW 4.0 mph 9.0 mph 77% 0.00 in
12:11 75.8 °F 66.9 °F 29.84 in WSW 8.0 mph 8.0 mph 74% 0.00 in
12:16 75.8 °F 67.3 °F 29.84 in SW 8.0 mph 9.0 mph 75% 0.00 in
12:21 76.1 °F 67.6 °F 29.84 in WSW 2.0 mph 7.0 mph 75% 0.00 in
12:26 76.2 °F 67.7 °F 29.84 in SW 3.0 mph 11.0 mph 75% 0.00 in
12:31 76.3 °F 67.0 °F 29.83 in WNW 7.0 mph 11.0 mph 73% 0.00 in
12:36 76.8 °F 67.1 °F 29.83 in SSW 8.0 mph 10.0 mph 72% 0.00 in
12:41 76.9 °F 66.8 °F 29.83 in WNW 5.0 mph 8.0 mph 71% 0.00 in
12:47 77.0 °F 66.9 °F 29.83 in West 5.0 mph 10.0 mph 71% 0.00 in
12:52 77.2 °F 67.9 °F 29.83 in North 5.0 mph 5.0 mph 73% 0.00 in
12:57 77.7 °F 67.1 °F 29.83 in SW 4.0 mph 8.0 mph 70% 0.00 in
13:02 77.8 °F 66.0 °F 29.82 in South 3.0 mph 8.0 mph 67% 0.00 in
13:07 78.0 °F 67.0 °F 29.83 in SSW 4.0 mph 8.0 mph 69% 0.00 in
13:12 78.5 °F 66.2 °F 29.83 in WSW 6.0 mph 10.0 mph 66% 0.00 in
13:17 78.1 °F 66.7 °F 29.83 in SW 5.0 mph 8.0 mph 68% 0.00 in
13:22 77.8 °F 66.8 °F 29.82 in WNW 2.0 mph 3.0 mph 69% 0.00 in
13:27 78.2 °F 66.8 °F 29.82 in SW 3.0 mph 10.0 mph 68% 0.00 in
13:33 78.8 °F 67.4 °F 29.83 in West 5.0 mph 8.0 mph 68% 0.00 in
13:38 78.9 °F 66.2 °F 29.83 in SE 1.0 mph 6.0 mph 65% 0.00 in
13:43 79.5 °F 66.3 °F 29.83 in SW 2.0 mph 6.0 mph 64% 0.00 in
13:48 79.5 °F 65.8 °F 29.82 in SSE 5.0 mph 7.0 mph 63% 0.00 in
13:53 79.6 °F 66.4 °F 29.83 in West 7.0 mph 8.0 mph 64% 0.00 in
13:58 79.5 °F 66.3 °F 29.82 in SW 2.0 mph 6.0 mph 64% 0.00 in
14:04 79.7 °F 66.0 °F 29.82 in SW 3.0 mph 4.0 mph 63% 0.00 in
14:09 79.9 °F 65.7 °F 29.82 in SSE 1.0 mph 8.0 mph 62% 0.00 in
14:14 80.6 °F 66.4 °F 29.82 in West 7.0 mph 7.0 mph 62% 0.00 in
14:19 80.6 °F 66.4 °F 29.82 in South 3.0 mph 4.0 mph 62% 0.00 in
14:24 80.9 °F 66.2 °F 29.81 in NW 3.0 mph 6.0 mph 61% 0.00 in
14:29 80.6 °F 65.4 °F 29.81 in NW 2.0 mph 6.0 mph 60% 0.00 in
14:34 80.5 °F 65.8 °F 29.81 in NNE 1.0 mph 4.0 mph 61% 0.00 in
14:39 80.6 °F 65.0 °F 29.81 in NNE 3.0 mph 4.0 mph 59% 0.00 in
14:44 81.0 °F 65.8 °F 29.81 in Calm   4.0 mph 60% 0.00 in
14:50 81.8 °F 65.6 °F 29.81 in WNW 4.0 mph 4.0 mph 58% 0.00 in
14:56 81.5 °F 64.8 °F 29.80 in West 4.0 mph 7.0 mph 57% 0.00 in
15:01 81.2 °F 68.8 °F 29.80 in WNW 1.0 mph 4.0 mph 66% 0.00 in
15:06 81.6 °F 65.4 °F 29.80 in SE 3.0 mph 4.0 mph 58% 0.00 in
15:11 81.6 °F 65.9 °F 29.80 in East 3.0 mph 4.0 mph 59% 0.00 in
15:16 81.5 °F 65.3 °F 29.79 in East 5.0 mph 5.0 mph 58% 0.00 in
15:22 81.4 °F 66.7 °F 29.79 in South 2.0 mph 3.0 mph 61% 0.00 in
15:27 82.1 °F 64.9 °F 29.79 in West 5.0 mph 5.0 mph 56% 0.00 in
15:32 82.3 °F 66.6 °F 29.78 in SW 5.0 mph 5.0 mph 59% 0.00 in
15:37 82.4 °F 64.6 °F 29.79 in West 4.0 mph 5.0 mph 55% 0.00 in
15:42 82.4 °F 64.1 °F 29.78 in WNW 2.0 mph 4.0 mph 54% 0.00 in
15:47 82.3 °F 63.5 °F 29.78 in WSW 3.0 mph 6.0 mph 53% 0.00 in
15:52 82.4 °F 65.1 °F 29.78 in WSW 4.0 mph 4.0 mph 56% 0.00 in
15:57 82.9 °F 65.1 °F 29.78 in SSE 5.0 mph 8.0 mph 55% 0.00 in
16:02 82.8 °F 65.5 °F 29.78 in SSE 6.0 mph 7.0 mph 56% 0.00 in
16:07 82.9 °F 66.6 °F 29.78 in SSE 5.0 mph 8.0 mph 58% 0.00 in
16:12 82.8 °F 63.4 °F 29.77 in WSW 2.0 mph 5.0 mph 52% 0.00 in
16:17 82.8 °F 64.5 °F 29.77 in East 3.0 mph 3.0 mph 54% 0.00 in
16:22 82.6 °F 64.8 °F 29.77 in SE 4.0 mph 5.0 mph 55% 0.00 in
16:27 82.8 °F 64.5 °F 29.77 in SSE 7.0 mph 8.0 mph 54% 0.00 in
16:32 82.8 °F 63.9 °F 29.77 in Calm   5.0 mph 53% 0.00 in
16:38 83.0 °F 65.2 °F 29.77 in SSE 8.0 mph 9.0 mph 55% 0.00 in
16:43 82.6 °F 64.3 °F 29.76 in SE 3.0 mph 8.0 mph 54% 0.00 in
16:48 82.6 °F 65.3 °F 29.76 in SE 3.0 mph 6.0 mph 56% 0.00 in
16:53 82.8 °F 66.0 °F 29.76 in South 7.0 mph 7.0 mph 57% 0.00 in
16:58 83.0 °F 64.7 °F 29.76 in SSW 6.0 mph 8.0 mph 54% 0.00 in
16:59 82.9 °F 66.1 °F 29.76 in WSW 5.0 mph 7.0 mph 57% 0.00 in
17:04 82.7 °F 65.9 °F 29.76 in SSE 6.0 mph 8.0 mph 57% 0.00 in
17:09 82.6 °F 64.3 °F 29.76 in SW 7.0 mph 10.0 mph 54% 0.00 in
17:14 82.5 °F 65.2 °F 29.76 in SE 6.0 mph 8.0 mph 56% 0.00 in
17:19 82.5 °F 64.2 °F 29.76 in SE 4.0 mph 8.0 mph 54% 0.00 in
17:24 82.6 °F 66.3 °F 29.76 in SSW 4.0 mph 10.0 mph 58% 0.00 in
17:30 82.8 °F 66.0 °F 29.75 in SE 6.0 mph 8.0 mph 57% 0.00 in
17:35 82.6 °F 65.3 °F 29.75 in SE 9.0 mph 9.0 mph 56% 0.00 in
17:40 82.4 °F 65.7 °F 29.75 in SE 6.0 mph 9.0 mph 57% 0.00 in
17:45 82.2 °F 66.5 °F 29.75 in SSE 6.0 mph 7.0 mph 59% 0.00 in
17:46 82.2 °F 64.4 °F 29.75 in SSE 4.0 mph 6.0 mph 55% 0.00 in
17:51 82.5 °F 64.7 °F 29.75 in SW 3.0 mph 5.0 mph 55% 0.00 in
17:56 82.4 °F 65.1 °F 29.75 in SSE 5.0 mph 11.0 mph 56% 0.00 in
18:01 82.1 °F 65.9 °F 29.74 in SSE 4.0 mph 7.0 mph 58% 0.00 in
18:06 82.0 °F 66.3 °F 29.74 in SE 7.0 mph 11.0 mph 59% 0.00 in
18:11 81.6 °F 64.9 °F 29.74 in SE 5.0 mph 9.0 mph 57% 0.00 in
18:16 81.4 °F 65.2 °F 29.73 in SE 6.0 mph 8.0 mph 58% 0.00 in
18:22 81.5 °F 64.8 °F 29.73 in ESE 7.0 mph 8.0 mph 57% 0.00 in
18:27 81.2 °F 65.0 °F 29.73 in ESE 4.0 mph 7.0 mph 58% 0.00 in
18:32 81.1 °F 66.4 °F 29.73 in SSE 2.0 mph 6.0 mph 61% 0.00 in
18:37 81.1 °F 64.9 °F 29.73 in SSE 5.0 mph 5.0 mph 58% 0.00 in
18:42 81.3 °F 64.6 °F 29.73 in SSE 3.0 mph 5.0 mph 57% 0.00 in
18:47 81.4 °F 64.7 °F 29.73 in SE 2.0 mph 3.0 mph 57% 0.00 in
18:52 81.5 °F 64.3 °F 29.74 in SSE 3.0 mph 4.0 mph 56% 0.00 in
18:57 81.4 °F 63.2 °F 29.74 in SSE 3.0 mph 4.0 mph 54% 0.00 in
19:02 81.4 °F 63.7 °F 29.74 in SSE 2.0 mph 3.0 mph 55% 0.00 in
19:07 81.2 °F 64.0 °F 29.74 in SSE 2.0 mph 4.0 mph 56% 0.00 in
19:12 81.1 °F 64.9 °F 29.75 in SSE 1.0 mph 3.0 mph 58% 0.00 in
19:17 81.0 °F 64.3 °F 29.75 in SSE 1.0 mph 3.0 mph 57% 0.00 in
19:22 81.0 °F 63.3 °F 29.75 in SSE 2.0 mph 3.0 mph 55% 0.00 in
19:27 80.8 °F 63.7 °F 29.76 in SSE 3.0 mph 3.0 mph 56% 0.00 in
19:32 80.6 °F 64.0 °F 29.76 in SSE 2.0 mph 2.0 mph 57% 0.00 in
19:38 80.2 °F 63.6 °F 29.76 in SSE 2.0 mph 3.0 mph 57% 0.00 in
19:43 79.6 °F 64.0 °F 29.77 in SSE 1.0 mph 2.0 mph 59% 0.00 in
19:48 79.0 °F 63.9 °F 29.77 in SSE 1.0 mph 2.0 mph 60% 0.00 in
19:53 78.4 °F 63.4 °F 29.77 in South 1.0 mph 2.0 mph 60% 0.00 in
19:58 77.9 °F 63.8 °F 29.78 in SSE 1.0 mph 2.0 mph 62% 0.00 in
20:03 77.0 °F 63.5 °F 29.79 in SSE 2.0 mph 2.0 mph 63% 0.00 in
20:08 76.6 °F 63.5 °F 29.79 in South 2.0 mph 3.0 mph 64% 0.00 in
20:13 76.3 °F 63.7 °F 29.79 in South 2.0 mph 3.0 mph 65% 0.00 in
20:18 76.0 °F 63.8 °F 29.80 in SSE 1.0 mph 3.0 mph 66% 0.00 in
20:23 75.6 °F 63.9 °F 29.80 in South 1.0 mph 2.0 mph 67% 0.00 in
20:28 75.4 °F 63.7 °F 29.81 in SSE 4.0 mph 4.0 mph 67% 0.00 in
20:33 75.1 °F 63.8 °F 29.81 in SE 2.0 mph 3.0 mph 68% 0.00 in
20:38 74.6 °F 63.8 °F 29.81 in SE 1.0 mph 2.0 mph 69% 0.00 in
20:39 74.5 °F 63.7 °F 29.81 in Calm   1.0 mph 69% 0.00 in
20:44 74.0 °F 63.6 °F 29.81 in ESE 2.0 mph 2.0 mph 70% 0.00 in
20:49 73.7 °F 63.7 °F 29.81 in SE 1.0 mph 2.0 mph 71% 0.00 in
20:54 73.4 °F 63.4 °F 29.81 in ESE 2.0 mph 2.0 mph 71% 0.00 in
20:59 73.5 °F 63.5 °F 29.81 in East 2.0 mph 3.0 mph 71% 0.00 in
21:04 73.1 °F 63.5 °F 29.81 in East 1.0 mph 2.0 mph 72% 0.00 in
21:09 72.5 °F 63.4 °F 29.81 in Calm   1.0 mph 73% 0.00 in
21:14 72.3 °F 63.6 °F 29.81 in SE 1.0 mph 1.0 mph 74% 0.00 in
21:19 72.3 °F 63.6 °F 29.82 in SE 1.0 mph 1.0 mph 74% 0.00 in
21:24 72.2 °F 63.5 °F 29.82 in SSE 1.0 mph 2.0 mph 74% 0.00 in
21:29 72.2 °F 63.5 °F 29.82 in Calm   1.0 mph 74% 0.00 in
21:34 72.2 °F 63.5 °F 29.82 in SSE 1.0 mph 2.0 mph 74% 0.00 in
21:39 72.2 °F 63.5 °F 29.82 in SSE 2.0 mph 2.0 mph 74% 0.00 in
21:44 72.3 °F 63.6 °F 29.82 in SE 2.0 mph 2.0 mph 74% 0.00 in
21:49 72.4 °F 63.7 °F 29.83 in SE 1.0 mph 1.0 mph 74% 0.00 in
21:55 72.2 °F 63.5 °F 29.83 in SE 1.0 mph 2.0 mph 74% 0.00 in
22:00 72.3 °F 63.9 °F 29.83 in SE 2.0 mph 2.0 mph 75% 0.00 in
22:05 72.4 °F 63.7 °F 29.83 in SSE 2.0 mph 2.0 mph 74% 0.00 in
22:10 72.4 °F 63.3 °F 29.83 in SE 1.0 mph 2.0 mph 73% 0.00 in
22:15 72.2 °F 63.1 °F 29.84 in SE 2.0 mph 2.0 mph 73% 0.00 in
22:20 72.2 °F 63.1 °F 29.84 in SSE 2.0 mph 4.0 mph 73% 0.00 in
22:25 72.2 °F 63.1 °F 29.84 in Calm   3.0 mph 73% 0.00 in
22:30 72.0 °F 62.9 °F 29.84 in SSE 1.0 mph 1.0 mph 73% 0.00 in
22:35 71.9 °F 63.2 °F 29.84 in SE 1.0 mph 1.0 mph 74% 0.00 in
22:40 71.7 °F 62.6 °F 29.84 in SE 1.0 mph 1.0 mph 73% 0.00 in
22:46 71.6 °F 62.5 °F 29.84 in Calm   1.0 mph 73% 0.00 in
22:51 71.4 °F 62.3 °F 29.84 in Calm   1.0 mph 73% 0.00 in
22:56 71.1 °F 62.4 °F 29.84 in Calm   1.0 mph 74% 0.00 in
23:01 70.7 °F 62.4 °F 29.84 in SSE 1.0 mph 1.0 mph 75% 0.00 in
23:06 70.3 °F 62.0 °F 29.85 in SSW 2.0 mph 2.0 mph 75% 0.00 in
23:11 70.1 °F 62.2 °F 29.85 in South 5.0 mph 5.0 mph 76% 0.00 in
23:16 70.3 °F 62.0 °F 29.85 in South 1.0 mph 6.0 mph 75% 0.00 in
23:21 70.5 °F 61.8 °F 29.85 in SSW 4.0 mph 4.0 mph 74% 0.00 in
23:26 70.2 °F 61.9 °F 29.85 in SW 2.0 mph 3.0 mph 75% 0.00 in
23:31 70.0 °F 62.1 °F 29.85 in SW 3.0 mph 4.0 mph 76% 0.00 in
23:36 69.8 °F 62.3 °F 29.85 in WSW 2.0 mph 3.0 mph 77% 0.00 in
23:42 69.7 °F 62.2 °F 29.84 in SW 1.0 mph 3.0 mph 77% 0.00 in
23:47 69.4 °F 61.9 °F 29.84 in SSW 1.0 mph 1.0 mph 77% 0.00 in
23:52 68.9 °F 61.8 °F 29.84 in Calm     78% 0.00 in
23:57 68.5 °F 61.7 °F 29.84 in Calm     79% 0.00 in
Compliments of Weather Underground